Location: Asheville, NC
(35.6000°N, 82.5500°W)
Time: 14:59:00
(UTC-05:00)

Vanguard 1 Rocket - Pass Details

Date: 16 December 2017
Orbit: 656 x 4222 km, 34.3° (Epoch: 17 January)

Event Time Altitude Azimuth Distance (km) Brightness Sun altitude
Rises 16:15:47 0° 235° (SW) 3,677 12.9 9.9°
Reaches altitude 10° 16:17:54 10° 231° (SW) 2,971 14.9 9.5°
Maximum altitude 16:25:06 59° 153° (SSE) 1,853 9.2 8.4°
Drops below altitude 10° 16:39:17 10° 79° (E) 5,585 10.9 6.0°
Sets 16:44:55 0° 77° (ENE) 7,163 11.4 5.1°
